TimeCST,TemperatureF,Dew PointF,Humidity,Sea Level PressureIn,VisibilityMPH,Wind Direction,Wind SpeedMPH,Gust SpeedMPH,PrecipitationIn,Events,Conditions,WindDirDegrees,DateUTC
12:53 AM,30.0,27.0,88,30.43,10.0,Calm,Calm,-,N/A,,Overcast,0,2013-01-04 06:53:00
1:53 AM,30.0,26.1,85,30.43,10.0,NNW,4.6,-,N/A,,Overcast,330,2013-01-04 07:53:00
2:53 AM,27.0,24.1,89,30.43,10.0,NNW,3.5,-,N/A,,Mostly Cloudy,330,2013-01-04 08:53:00
3:53 AM,26.1,23.0,88,30.43,10.0,Calm,Calm,-,N/A,,Clear,0,2013-01-04 09:53:00
4:53 AM,23.0,21.9,96,30.44,9.0,Calm,Calm,-,N/A,,Clear,0,2013-01-04 10:53:00
5:53 AM,21.9,21.0,96,30.46,7.0,Calm,Calm,-,N/A,,Clear,0,2013-01-04 11:53:00
7:53 AM,24.1,23.0,96,30.48,6.0,South,4.6,-,N/A,,Clear,190,2013-01-04 13:53:00
8:53 AM,28.9,28.0,96,30.48,9.0,SSW,3.5,-,N/A,,Clear,200,2013-01-04 14:53:00
9:53 AM,32.0,25.0,75,30.48,10.0,South,4.6,-,N/A,,Clear,170,2013-01-04 15:53:00
10:53 AM,36.0,25.0,64,30.48,10.0,SW,4.6,-,N/A,,Clear,220,2013-01-04 16:53:00
11:53 AM,41.0,24.1,51,30.45,10.0,SSW,5.8,-,N/A,,Clear,200,2013-01-04 17:53:00
12:53 PM,42.1,21.9,45,30.41,10.0,West,9.2,-,N/A,,Clear,260,2013-01-04 18:53:00
1:53 PM,44.1,23.0,43,30.38,10.0,West,10.4,-,N/A,,Clear,260,2013-01-04 19:53:00
2:53 PM,45.0,21.9,40,30.36,10.0,SW,8.1,-,N/A,,Partly Cloudy,230,2013-01-04 20:53:00
3:53 PM,44.1,21.9,42,30.37,10.0,WSW,8.1,-,N/A,,Clear,250,2013-01-04 21:53:00
4:53 PM,42.1,21.9,45,30.36,10.0,SW,3.5,-,N/A,,Clear,230,2013-01-04 22:53:00
5:53 PM,37.0,24.1,59,30.38,10.0,SSW,6.9,-,N/A,,Clear,200,2013-01-04 23:53:00
6:53 PM,34.0,23.0,64,30.39,10.0,SSW,5.8,-,N/A,,Clear,200,2013-01-05 00:53:00
7:53 PM,32.0,21.9,66,30.39,10.0,SSW,5.8,-,N/A,,Clear,210,2013-01-05 01:53:00
8:53 PM,32.0,23.0,69,30.38,10.0,SSW,8.1,-,N/A,,Clear,200,2013-01-05 02:53:00
9:53 PM,30.0,21.9,72,30.38,10.0,SSW,5.8,-,N/A,,Clear,200,2013-01-05 03:53:00
10:53 PM,30.0,21.9,72,30.36,10.0,South,3.5,-,N/A,,Clear,190,2013-01-05 04:53:00
11:53 PM,28.9,21.9,75,30.34,10.0,South,4.6,-,N/A,,Clear,190,2013-01-05 05:53:00